Date String (YYYY-MM-DD hh:mm:ss) UTC,Instrument flags,Ambient pressure (hPa),Sample flow (lpm),Bypass flow (lpm),Sample temperature (°C),Ambient temperature (°C),ASC tube jacket temperature (°C),LED temperature (°C),Box temperature (°C),Sample RH (%),Span deviation,Mass concentration (μg/m³),Mass concentration (μg/m³),Mass concentration (μg/m³)
DateTimeUTC,F1_M11,P_M11,Q1_M11,Q2_M11,T1_M11,T2_M11,T3_M11,T4_M11,T5_M11,U1_M11,ZSPAN_M11,X0_M11,X2_M11,X1_M11
2021-10-26 20:00:00,,0809.1,5.01,0.00,28.9,27.8,00.0,38.1,30.5,11.9,0000.0,0004.65,0000.61,0000.18
2021-10-26 20:01:00,,0809.1,4.99,0.00,28.9,27.7,00.0,38.1,30.5,11.9,0000.0,0005.51,0000.66,0000.17
2021-10-26 20:02:00,,0809.0,5.01,0.00,28.8,27.7,00.0,38.1,30.5,11.8,0000.0,0006.56,0000.62,0000.17
2021-10-26 20:03:00,,0809.0,5.00,0.00,28.8,27.7,00.0,38.1,30.5,11.7,0000.0,0006.17,0000.49,0000.16
2021-10-26 20:04:00,,0809.1,5.00,0.00,28.8,27.7,00.0,38.1,30.5,11.5,0000.0,0006.18,0000.49,0000.17
2021-10-26 20:05:00,,0809.2,5.01,0.00,28.8,27.7,00.0,38.1,30.6,11.4,0000.0,0006.24,0000.51,0000.18
2021-10-26 20:06:00,,0809.2,4.99,0.00,28.8,27.7,00.0,38.1,30.5,11.7,0000.0,0006.54,0000.56,0000.18
2021-10-26 20:07:00,,0809.2,5.00,0.00,28.8,27.7,00.0,38.0,30.5,11.8,0000.0,0006.53,0000.62,0000.19
2021-10-26 20:08:00,,0809.2,5.01,0.00,28.8,27.7,00.0,38.0,30.4,11.7,0000.0,0007.13,0000.62,0000.19
2021-10-26 20:09:00,,0809.2,4.99,0.00,28.7,27.7,00.0,38.0,30.4,11.8,0000.0,0005.38,0000.60,0000.19
2021-10-26 20:10:00,,0809.3,4.99,0.00,28.7,27.7,00.0,38.0,30.4,11.7,0000.0,0005.32,0000.55,0000.19
2021-10-26 20:11:00,,0809.2,5.01,0.00,28.7,27.7,00.0,38.0,30.3,11.7,0000.0,0004.87,0000.51,0000.18
2021-10-26 20:12:00,,0809.2,4.99,0.00,28.7,27.6,00.0,38.0,30.3,11.7,0000.0,0003.86,0000.47,0000.18
2021-10-26 20:13:00,,0809.2,5.01,0.00,28.7,27.6,00.0,37.9,30.3,11.8,0000.0,0002.75,0000.46,0000.18
2021-10-26 20:14:00,,0809.2,5.00,0.00,28.7,27.6,00.0,37.9,30.3,11.9,0000.0,0003.03,0000.51,0000.17
2021-10-26 20:15:00,,0809.2,4.99,0.00,28.7,27.5,00.0,37.9,30.3,11.9,0000.0,0003.38,0000.53,0000.17
2021-10-26 20:16:00,,0809.2,5.00,0.00,28.7,27.5,00.0,37.9,30.3,11.9,0000.0,0003.50,0000.52,0000.16
2021-10-26 20:17:00,,0809.2,5.01,0.00,28.7,27.6,00.0,37.9,30.3,12.2,0000.0,0003.12,0000.48,0000.16
2021-10-26 20:18:00,,0809.2,4.99,0.00,28.7,27.5,00.0,37.9,30.3,12.2,0000.0,0003.04,0000.47,0000.15
2021-10-26 20:19:00,,0809.2,4.99,0.00,28.7,27.5,00.0,37.9,30.2,12.0,0000.0,0001.84,0000.46,0000.15
2021-10-26 20:20:00,,0809.1,5.01,0.00,28.6,27.5,00.0,37.9,30.2,12.2,0000.0,0001.79,0000.46,0000.15
2021-10-26 20:21:00,,0809.1,5.00,0.00,28.6,27.4,00.0,37.9,30.2,12.3,0000.0,0001.68,0000.43,0000.15
2021-10-26 20:22:00,,0809.1,4.99,0.00,28.6,27.4,00.0,37.9,30.2,11.9,0000.0,0001.68,0000.44,0000.15
2021-10-26 20:23:00,,0809.1,5.01,0.00,28.6,27.4,00.0,37.9,30.2,12.2,0000.0,0001.67,0000.44,0000.15
2021-10-26 20:24:00,,0809.1,4.99,0.00,28.6,27.4,00.0,37.8,30.2,12.2,0000.0,0002.52,0000.44,0000.15
2021-10-26 20:25:00,,0809.2,5.00,0.00,28.6,27.3,00.0,37.8,30.2,12.1,0000.0,0002.83,0000.38,0000.14
2021-10-26 20:26:00,,0809.2,5.01,0.00,28.6,27.3,00.0,37.8,30.2,12.3,0000.0,0002.44,0000.33,0000.13
2021-10-26 20:27:00,,0809.2,4.99,0.00,28.6,27.3,00.0,37.8,30.2,12.7,0000.0,0002.22,0000.30,0000.13
2021-10-26 20:28:00,,0809.3,5.01,0.00,28.6,27.3,00.0,37.8,30.2,12.7,0000.0,0003.00,0000.29,0000.13
2021-10-26 20:29:00,,0809.2,4.99,0.00,28.6,27.3,00.0,37.8,30.2,12.0,0000.0,0003.42,0000.26,0000.13
2021-10-26 20:30:00,,0809.3,5.01,0.00,28.6,27.3,00.0,37.8,30.2,12.1,0000.0,0003.41,0000.25,0000.13
2021-10-26 20:31:00,,0809.2,5.01,0.00,28.6,27.3,00.0,37.8,30.1,11.9,0000.0,0003.29,0000.24,0000.13
2021-10-26 20:32:00,,0809.3,4.99,0.00,28.5,27.2,00.0,37.8,30.1,11.9,0000.0,0003.98,0000.26,0000.13
2021-10-26 20:33:00,,0809.3,5.00,0.00,28.5,27.2,00.0,37.8,30.1,12.0,0000.0,0004.44,0000.23,0000.13
2021-10-26 20:34:00,,0809.3,4.99,0.00,28.5,27.3,00.0,37.8,30.1,12.0,0000.0,0004.51,0000.24,0000.13
2021-10-26 20:35:00,,0809.3,5.01,0.00,28.5,27.3,00.0,37.8,30.1,11.9,0000.0,0003.61,0000.22,0000.13
2021-10-26 20:36:00,,0809.3,4.98,0.00,28.5,27.3,00.0,37.8,30.1,11.9,0000.0,0003.03,0000.22,0000.13
2021-10-26 20:37:00,,0809.3,5.01,0.00,28.5,27.3,00.0,37.8,30.1,11.8,0000.0,0003.08,0000.24,0000.13
2021-10-26 20:38:00,,0809.4,5.01,0.00,28.5,27.3,00.0,37.8,30.1,11.6,0000.0,0003.12,0000.25,0000.12
2021-10-26 20:39:00,,0809.4,5.00,0.00,28.5,27.3,00.0,37.8,30.1,11.6,0000.0,0002.28,0000.24,0000.12
2021-10-26 20:40:00,,0809.4,4.99,0.00,28.5,27.3,00.0,37.8,30.1,11.4,0000.0,0001.72,0000.24,0000.11
2021-10-26 20:41:00,,0809.4,5.00,0.00,28.5,27.3,00.0,37.8,30.2,11.6,0000.0,0001.68,0000.22,0000.10
2021-10-26 20:42:00,,0809.4,5.01,0.00,28.5,27.3,00.0,37.8,30.2,11.5,0000.0,0001.65,0000.20,0000.10
2021-10-26 20:43:00,,0809.4,4.99,0.00,28.5,27.3,00.0,37.8,30.2,11.6,0000.0,0000.93,0000.17,0000.09
2021-10-26 20:44:00,,0809.3,5.01,0.00,28.5,27.3,00.0,37.8,30.2,11.6,0000.0,0000.44,0000.17,0000.08
2021-10-26 20:45:00,,0809.4,5.00,0.00,28.5,27.3,00.0,37.8,30.2,11.6,0000.0,0000.45,0000.17,0000.08
2021-10-26 20:46:00,,0809.4,4.99,0.00,28.5,27.4,00.0,37.8,30.3,11.6,0000.0,0000.50,0000.19,0000.08
2021-10-26 20:47:00,,0809.4,4.99,0.00,28.5,27.4,00.0,37.8,30.2,11.6,0000.0,0000.51,0000.19,0000.07
2021-10-26 20:48:00,,0809.4,5.01,0.00,28.5,27.3,00.0,37.7,30.1,11.7,0000.0,0000.47,0000.17,0000.07
2021-10-26 20:49:00,,0809.4,5.00,0.00,28.5,27.3,00.0,37.7,30.1,12.0,0000.0,0000.42,0000.15,0000.06
2021-10-26 20:50:00,,0809.4,4.99,0.00,28.5,27.3,00.0,37.7,30.1,11.9,0000.0,0000.41,0000.15,0000.06
2021-10-26 20:51:00,,0809.4,5.00,0.00,28.5,27.3,00.0,37.7,30.2,11.6,0000.0,0000.42,0000.16,0000.06
2021-10-26 20:52:00,,0809.4,5.00,0.00,28.5,27.4,00.0,37.7,30.2,11.4,0000.0,0000.44,0000.17,0000.07
2021-10-26 20:53:00,,0809.4,4.99,0.00,28.5,27.4,00.0,37.7,30.3,11.4,0000.0,0000.93,0000.19,0000.08
2021-10-26 20:54:00,,0809.4,5.02,0.00,28.5,27.4,00.0,37.7,30.3,11.2,0000.0,0001.88,0000.20,0000.08
2021-10-26 20:55:00,,0809.4,5.00,0.00,28.5,27.4,00.0,37.7,30.3,10.8,0000.0,0001.92,0000.22,0000.09
2021-10-26 20:56:00,,0809.5,4.99,0.00,28.5,27.4,00.0,37.7,30.2,10.7,0000.0,0001.82,0000.22,0000.10
2021-10-26 20:57:00,,0809.6,5.00,0.00,28.5,27.4,00.0,37.7,30.1,10.9,0000.0,0001.80,0000.23,0000.11
2021-10-26 20:58:00,,0809.4,5.00,0.00,28.4,27.4,00.0,37.7,30.1,10.8,0000.0,0001.86,0000.28,0000.13
2021-10-26 20:59:00,,0809.4,5.01,0.00,28.4,27.4,00.0,37.7,30.2,10.4,0000.0,0001.97,0000.34,0000.14
